This is the latest recevied weather packets stored in our database for station/object IZ1UQG-N2. If no packets are shown the sender has not sent any weather packets the latest 10 day(s).
| Time | Temp. | Humidity | Pressure | Rain* | Wind** | Luminosity | Snow |
|---|---|---|---|---|---|---|---|
| 1777540572 | 15° C | 54% | 1023 hPa | 0 mm | - | 341 W/m² | - |
| 1777540512 | 15° C | 55% | 1023 hPa | 0 mm | - | 336 W/m² | - |
| 1777540452 | 15° C | 57% | 1023.1 hPa | 0 mm | - | 332 W/m² | - |
| 1777540448 | 15° C | 57% | 1023.1 hPa | 0 mm | - | 332 W/m² | - |
| 1777540390 | 15° C | 58% | 1023.1 hPa | 0 mm | - | 329 W/m² | - |
| 1777540332 | 15° C | 57% | 1023 hPa | 0 mm | - | 327 W/m² | - |
| 1777540271 | 15° C | 56% | 1023.2 hPa | 0 mm | - | 327 W/m² | - |
| 1777540267 | 15° C | 56% | 1023.2 hPa | 0 mm | - | 327 W/m² | - |
| 1777540211 | 15° C | 59% | 1023.2 hPa | 0 mm | - | 330 W/m² | - |
| 1777540151 | 14.44° C | 59% | 1023.1 hPa | 0 mm | - | 330 W/m² | - |
| 1777540090 | 14.44° C | 59% | 1023.1 hPa | 0 mm | - | 330 W/m² | - |
| 1777540088 | 14.44° C | 59% | 1023.1 hPa | 0 mm | - | 330 W/m² | - |
| 1777540031 | 14.44° C | 58% | 1023.1 hPa | 0 mm | - | 329 W/m² | - |
| 1777539971 | 14.44° C | 57% | 1023.1 hPa | 0 mm | - | 325 W/m² | - |
| 1777539910 | 14.44° C | 57% | 1023.1 hPa | 0 mm | - | 322 W/m² | - |
| 1777539908 | 14.44° C | 57% | 1023.1 hPa | 0 mm | - | 322 W/m² | - |
| 1777539852 | 14.44° C | 55% | 1023.1 hPa | 0 mm | - | 318 W/m² | - |
| 1777539792 | 14.44° C | 54% | 1023.1 hPa | 0 mm | - | 316 W/m² | - |
| 1777539731 | 14.44° C | 55% | 1023.1 hPa | 0 mm | - | 315 W/m² | - |
| 1777539727 | 14.44° C | 55% | 1023.1 hPa | 0 mm | - | 315 W/m² | - |
| 1777539671 | 14.44° C | 54% | 1023.2 hPa | 0 mm | - | 316 W/m² | - |
| 1777539611 | 14.44° C | 51% | 1023.2 hPa | 0 mm | - | 316 W/m² | - |
| 1777539551 | 14.44° C | 52% | 1023.1 hPa | 0 mm | - | 318 W/m² | - |
| 1777539547 | 14.44° C | 52% | 1023.1 hPa | 0 mm | - | 318 W/m² | - |
| 1777539490 | 14.44° C | 55% | 1023.1 hPa | 0 mm | - | 320 W/m² | - |
* Rain latest hour (hover to see other rain measurements)
** Current wind speed in m/s (hover to see current wind gust speed)